PBO Station Position Time Series. Reference Frame : NAM14
Format Version,1.1.0
4-character ID,TFNO
Station name,Tofino
Begin Date, 2008-10-03
End Date, 2019-10-07
Release Date, 2019-10-08
Reference position, 49.1541430290 North Latitude, -125.9078387301 East Longitude, -3.85290 meters elevation,
Date, North (mm), East (mm), Vertical (mm), North Std. Deviation (mm), East Std. Deviation (mm),              Vertical Std. Deviation (mm), Quality,
2008-10-03,112.99, 413.17, 14.83, 150.75, 421.99, 439.60, repro,
2008-10-04,0.00, 0.00, 0.00, 2.73, 1.92, 9.01, repro,
2008-10-05,0.31, -0.29, -4.60, 2.60, 1.84, 8.62, repro,
2008-10-06,1.77, 1.81, -15.20, 2.57, 1.82, 8.62, repro,
2008-10-07,-0.39, -0.21, 7.85, 2.61, 1.85, 8.83, repro,
2008-10-08,-0.18, -0.11, 1.84, 2.63, 1.86, 8.92, repro,
2008-10-09,-1.38, -0.48, -2.30, 2.48, 1.82, 8.35, repro,
2008-10-10,3.06, 0.97, -4.20, 2.58, 1.84, 8.47, repro,
2008-10-11,2.51, 1.50, 0.24, 2.59, 1.89, 8.79, repro,
2008-10-12,1.31, 1.58, -4.55, 2.60, 1.88, 8.75, repro,
2008-10-13,0.84, 0.05, -11.32, 2.67, 1.96, 9.10, repro,
2008-10-14,1.03, 0.25, -7.90, 2.62, 1.91, 8.85, repro,
2008-10-15,1.99, 0.54, -5.49, 2.66, 1.90, 8.78, repro,
2008-10-16,3.34, -0.91, -1.87, 2.62, 1.90, 8.92, repro,
2008-10-17,2.89, 0.79, -9.39, 2.53, 1.87, 8.90, repro,
2008-10-18,2.82, 0.70, -4.92, 2.49, 1.84, 8.59, repro,
2008-10-19,2.24, 0.08, -11.29, 2.50, 1.79, 8.43, repro,
2008-10-20,1.63, 0.75, -3.20, 2.50, 1.80, 8.44, repro,
2008-10-21,1.70, 2.03, -0.21, 2.79, 2.03, 9.34, repro,
2008-10-22,1.14, 3.16, -4.19, 2.70, 1.92, 9.19, repro,
2008-10-23,0.53, 2.16, -1.65, 2.51, 1.86, 8.66, repro,
2008-10-24,1.02, -0.47, 5.89, 2.53, 1.91, 9.00, repro,
2008-10-25,2.29, 1.55, -2.57, 2.48, 1.82, 8.44, repro,
2008-10-26,3.38, 1.66, -7.99, 2.50, 1.81, 8.42, repro,
2008-10-27,4.30, 2.16, -14.97, 2.47, 1.81, 8.38, repro,
2008-10-28,1.38, 2.51, -7.55, 2.72, 1.94, 8.76, repro,
2008-10-29,2.58, 2.96, -10.26, 2.59, 1.87, 8.56, repro,
2008-10-30,3.65, 2.11, -3.29, 2.47, 1.84, 8.41, repro,
2008-10-31,2.22, 1.28, -4.41, 2.51, 1.82, 8.37, repro,
2008-11-01,4.21, 2.57, -8.78, 2.50, 1.84, 8.35, repro,
2008-11-02,1.35, 1.09, 0.87, 2.48, 1.88, 8.61, repro,
2008-11-03,0.62, 1.41, 2.70, 2.54, 1.90, 8.71, repro,
2008-11-04,1.85, 1.73, -8.52, 2.54, 1.87, 8.53, repro,
2008-11-05,1.80, 1.59, 0.81, 2.47, 1.80, 8.25, repro,
2008-11-06,1.31, 1.99, -2.80, 2.51, 1.85, 8.47, repro,
2008-11-07,1.90, 3.26, -6.49, 2.48, 1.82, 8.39, repro,
2008-11-08,2.18, 2.31, -15.59, 2.57, 1.95, 8.92, repro,
2008-11-09,-1.05, 2.31, -5.23, 2.54, 1.89, 8.67, repro,
2008-11-10,0.42, 1.60, 1.39, 2.54, 1.93, 8.94, repro,
2008-11-11,1.83, 0.80, -0.51, 2.56, 1.89, 8.70, repro,
2008-11-12,4.26, 2.82, 2.93, 2.57, 1.89, 8.71, repro,
2008-11-13,0.55, 2.81, 5.83, 2.58, 1.87, 8.81, repro,
2008-11-14,2.60, 1.96, -1.08, 2.53, 1.90, 8.78, repro,
2008-11-15,0.38, 2.77, -13.60, 2.55, 1.89, 8.69, repro,
2008-11-16,0.50, 1.63, -14.71, 2.50, 1.89, 8.67, repro,
2008-11-17,2.75, 3.11, -10.36, 2.49, 1.88, 8.50, repro,
2008-11-18,3.59, 2.43, -6.32, 2.48, 1.87, 8.46, repro,
2008-11-19,2.83, 3.89, -18.31, 2.48, 1.87, 8.52, repro,
2008-11-20,3.69, 3.41, -9.65, 2.51, 1.93, 8.69, repro,
2008-11-21,-0.46, 1.67, -9.31, 2.54, 1.93, 8.81, repro,
2008-11-22,2.39, 1.80, 1.30, 2.52, 1.93, 8.78, repro,
2008-11-23,3.93, 2.74, -6.03, 2.51, 1.82, 8.32, repro,
2008-11-24,3.21, 2.06, 1.85, 2.51, 1.87, 8.55, repro,
2008-11-25,4.44, 2.74, -12.50, 2.49, 1.80, 8.30, repro,
2008-11-26,2.72, 4.14, -16.06, 2.52, 1.83, 8.45, repro,
2008-11-27,4.30, 2.93, -10.96, 2.50, 1.84, 8.54, repro,
2008-11-28,2.58, 1.69, -3.35, 2.48, 1.92, 8.74, repro,
2008-11-29,0.19, 0.25, 2.25, 2.49, 1.94, 8.74, repro,
2008-11-30,1.49, 2.26, -4.79, 2.48, 1.82, 8.40, repro,
2008-12-01,1.23, 2.10, -1.97, 2.50, 1.81, 8.34, repro,
2008-12-02,2.77, 2.93, -11.99, 2.55, 1.93, 9.02, repro,
2008-12-03,2.63, 1.64, 2.65, 2.45, 1.76, 8.13, repro,
2008-12-04,0.55, 0.43, -10.65, 2.48, 1.81, 8.49, repro,
2008-12-05,1.06, 3.10, -3.03, 2.43, 1.80, 8.31, repro,
2008-12-06,2.43, 1.90, 3.04, 2.51, 1.92, 8.81, repro,
2008-12-07,4.16, 1.83, -7.04, 2.58, 1.91, 8.84, repro,
2008-12-08,1.17, 0.21, -14.42, 2.49, 1.81, 8.36, repro,
2008-12-09,5.70, 2.72, -16.14, 2.51, 1.87, 8.52, repro,
2008-12-10,3.19, 0.53, -14.12, 2.48, 1.84, 8.38, repro,
2008-12-11,-0.24, 2.89, -10.65, 2.55, 1.92, 8.78, repro,
2008-12-12,0.42, 0.22, -6.36, 2.59, 1.98, 9.17, repro,
2008-12-13,2.90, 1.35, -0.41, 2.61, 1.96, 8.99, repro,
2008-12-14,6.51, 0.38, -5.98, 2.51, 1.86, 8.56, repro,
2008-12-15,3.21, 0.97, 1.89, 2.48, 1.82, 8.39, repro,
2008-12-16,1.56, 0.57, 3.37, 2.57, 1.87, 8.62, repro,
2008-12-17,0.82, 1.69, -9.50, 2.60, 1.94, 8.90, repro,
2008-12-18,2.07, 1.77, -3.77, 2.64, 1.90, 8.90, repro,
2008-12-19,0.84, 1.12, 1.44, 2.63, 1.92, 8.93, repro,
2008-12-20,1.77, 1.62, -7.41, 2.46, 1.83, 8.38, repro,
2008-12-21,1.33, 1.23, -8.66, 2.50, 1.86, 8.51, repro,
2008-12-22,1.58, 1.61, -4.32, 2.51, 1.86, 8.53, repro,
2008-12-23,2.06, 2.48, -7.75, 2.58, 1.93, 8.74, repro,
2008-12-24,4.31, 3.07, -14.64, 2.66, 1.94, 9.04, repro,
2008-12-25,1.12, -0.26, -3.03, 2.56, 1.89, 8.63, repro,
2008-12-26,4.77, 2.70, 1.31, 2.49, 1.85, 8.54, repro,
2008-12-27,1.49, 2.43, -5.69, 2.57, 1.87, 8.76, repro,
2008-12-28,1.38, 2.16, -8.58, 2.58, 1.89, 8.66, repro,
2008-12-29,0.37, 3.52, -8.23, 2.52, 1.86, 8.59, repro,
2008-12-30,2.19, 1.60, -12.75, 2.57, 1.89, 8.68, repro,
2008-12-31,3.19, 2.35, -15.41, 2.60, 1.90, 8.87, repro,
2009-01-01,1.05, 1.28, -8.70, 2.50, 1.81, 8.45, repro,
2009-01-02,2.10, 3.21, -12.25, 2.49, 1.83, 8.47, repro,
2009-01-03,-1.67, 1.15, -1.60, 2.49, 1.82, 8.41, repro,
2009-01-04,0.41, 2.77, -14.92, 2.46, 1.83, 8.41, repro,
2009-01-05,1.45, 1.88, -2.10, 2.50, 1.86, 8.65, repro,
2009-01-06,2.99, 2.47, -8.51, 2.67, 2.02, 9.14, repro,
2009-01-07,1.02, 2.60, -7.66, 2.59, 1.99, 9.06, repro,
2009-01-08,1.01, 1.62, -3.53, 2.57, 1.88, 8.85, repro,
2009-01-09,-0.29, 3.97, -6.91, 2.53, 1.89, 8.74, repro,
2009-01-10,3.39, 3.89, -17.69, 2.49, 1.84, 8.65, repro,
2009-01-11,2.99, 6.63, -28.23, 2.60, 1.97, 9.07, repro,
2009-01-12,2.01, 4.94, -26.54, 2.56, 1.96, 8.94, repro,
2009-01-13,1.26, 2.33, -28.28, 2.47, 1.84, 8.51, repro,
2009-01-14,2.03, 4.89, -17.02, 2.43, 1.79, 8.21, repro,
2009-01-15,-0.43, 2.84, -22.89, 2.55, 1.84, 8.64, repro,
2009-01-16,1.44, 3.76, -25.67, 2.61, 1.97, 9.06, repro,
2009-01-17,3.50, 4.39, -29.82, 2.47, 1.81, 8.43, repro,
2009-01-18,2.38, 2.90, -25.86, 2.49, 1.84, 8.47, repro,
2009-01-19,3.01, 4.39, -25.99, 2.50, 1.84, 8.53, repro,
2009-01-20,2.35, 4.20, -26.75, 2.59, 1.99, 9.00, repro,
2009-01-21,2.82, 4.77, -19.12, 2.47, 1.84, 8.54, repro,
2009-01-22,2.66, 3.94, -23.65, 2.46, 1.81, 8.47, repro,
2009-01-23,1.67, 3.73, -25.55, 2.49, 1.84, 8.56, repro,
2009-01-24,1.86, 4.74, -19.64, 2.50, 1.84, 8.61, repro,
2009-01-25,3.40, 2.59, -19.78, 2.49, 1.84, 8.67, repro,
2009-01-26,1.04, 3.35, -13.05, 2.56, 1.86, 8.73, repro,
2009-01-27,2.93, 4.47, -20.19, 2.65, 2.07, 9.47, repro,
2009-01-28,0.42, 1.46, -18.26, 2.45, 1.82, 8.53, repro,
2009-01-29,3.92, 4.80, -22.28, 2.52, 1.85, 8.77, repro,
2009-01-30,2.23, 4.04, -24.23, 2.47, 1.84, 8.65, repro,
2009-01-31,4.58, 2.85, -11.34, 2.53, 1.85, 8.66, repro,
2009-02-01,2.41, 4.18, -14.76, 2.49, 1.86, 8.69, repro,
2009-02-02,3.58, 3.63, -18.71, 2.55, 1.89, 8.80, repro,
2009-02-03,1.98, 2.08, -22.06, 2.47, 1.83, 8.56, repro,
2009-02-04,2.96, 2.75, -20.86, 2.44, 1.78, 8.34, repro,
2009-02-05,1.92, 3.48, -9.34, 2.63, 1.92, 9.17, repro,
2009-02-06,3.27, 4.32, -16.03, 2.64, 1.99, 9.20, repro,
2009-02-07,0.61, 4.27, -14.14, 2.44, 1.83, 8.47, repro,
2009-02-08,-0.09, 1.70, -4.36, 2.50, 1.88, 8.77, repro,
2009-02-09,0.13, 1.47, -6.38, 2.43, 1.80, 8.40, repro,
2009-02-10,5.21, 2.93, -12.04, 2.66, 1.94, 8.99, repro,
2009-02-11,2.31, 1.51, -8.45, 2.61, 1.91, 8.85, repro,
2009-02-12,3.12, 3.80, -8.90, 2.56, 1.89, 8.68, repro,
2009-02-13,0.76, 2.91, -7.85, 2.43, 1.84, 8.42, repro,
2009-02-14,0.41, 1.58, -7.47, 2.40, 1.81, 8.26, repro,
2009-02-15,2.16, 3.83, -10.67, 2.49, 1.82, 8.49, repro,
2009-02-16,2.12, 2.78, -4.09, 2.50, 1.87, 8.72, repro,
2009-02-17,1.71, 2.59, 2.17, 2.47, 1.83, 8.42, repro,
2009-02-18,1.31, 3.05, -6.58, 2.42, 1.83, 8.34, repro,
2009-02-19,0.82, 3.09, -18.05, 2.45, 1.84, 8.48, repro,
2009-02-20,1.57, 2.01, -17.67, 2.42, 1.83, 8.32, repro,
2009-02-21,2.53, 3.53, -18.89, 2.46, 1.82, 8.41, repro,
2009-02-22,2.13, 3.15, -12.20, 2.50, 1.85, 8.63, repro,
2009-02-23,2.91, 3.35, -14.99, 2.50, 1.88, 8.57, repro,
2009-02-24,-0.16, 1.26, -10.48, 2.69, 2.02, 9.05, repro,
2009-02-25,0.41, 1.85, -16.81, 185.22, 221.71, 405.08, repro,
2009-02-26,0.69, 2.24, -10.95, 2.49, 1.86, 8.67, repro,
2009-02-27,2.71, 3.43, -20.14, 2.46, 1.80, 8.48, repro,
2009-02-28,0.26, 3.70, -6.67, 2.45, 1.83, 8.44, repro,
2009-03-01,-0.19, 2.63, -10.13, 2.52, 1.90, 8.73, repro,
2009-03-02,-0.77, 0.88, -11.12, 2.49, 1.87, 8.64, repro,
2009-03-03,-2.71, -0.22, -7.73, 2.48, 1.90, 8.58, repro,
2009-03-04,-1.74, -0.98, -6.41, 2.53, 1.86, 8.72, repro,
2009-03-05,1.02, 1.00, -4.28, 2.46, 1.87, 8.59, repro,
2009-03-06,0.37, 0.72, 3.60, 2.55, 1.99, 9.17, repro,
2009-03-07,-1.04, -2.05, -4.45, 2.47, 1.87, 8.57, repro,
2009-03-08,-1.24, -1.82, -4.26, 2.45, 1.83, 8.47, repro,
2009-03-09,-0.10, -1.28, -0.29, 2.38, 1.78, 8.20, repro,
2009-03-10,-0.50, -0.18, -5.31, 2.44, 1.86, 8.47, repro,
2009-03-11,-0.09, -0.82, -3.88, 2.47, 1.86, 8.65, repro,
2009-03-12,-0.51, -0.04, -3.98, 2.50, 1.88, 8.77, repro,
2009-03-13,-1.42, -2.20, -6.17, 2.43, 1.82, 8.44, repro,
2009-03-14,-2.44, -2.57, -1.65, 2.48, 1.88, 8.64, repro,
2009-03-15,-2.40, -2.83, -8.88, 2.39, 1.83, 8.31, repro,
2009-03-16,-2.28, -0.43, -7.12, 2.45, 1.87, 8.50, repro,
2009-03-17,-0.28, -1.28, -8.73, 2.54, 1.92, 8.97, repro,
2009-03-18,-0.09, -1.31, -13.11, 2.48, 1.86, 8.63, repro,
2009-03-19,-0.88, -0.45, -11.52, 2.52, 1.93, 8.89, repro,
2009-03-20,-1.75, -0.37, -4.88, 2.42, 1.85, 8.41, repro,
2009-03-21,-3.32, -0.81, 2.35, 2.43, 1.83, 8.43, repro,
2009-03-22,-1.64, -1.83, -5.88, 2.42, 1.85, 8.42, repro,
2009-03-23,0.00, -0.48, -10.12, 2.48, 1.86, 8.71, repro,
2009-03-24,-0.60, -1.50, -6.09, 2.44, 1.87, 8.61, repro,
2009-03-25,0.70, -0.40, -9.91, 2.46, 1.87, 8.51, repro,
2009-03-26,-2.01, -1.22, -1.01, 2.50, 1.88, 8.65, repro,
2009-03-27,-0.65, -1.17, -2.38, 2.52, 1.86, 8.74, repro,
2009-03-28,-2.11, -0.72, 1.97, 2.54, 1.90, 8.89, repro,
2009-03-29,-2.39, -0.53, -1.45, 2.55, 1.90, 8.96, repro,
2009-03-30,-1.21, -1.37, -7.85, 2.51, 1.88, 8.80, repro,
2009-03-31,1.51, -0.18, -16.81, 2.48, 1.87, 8.66, repro,
2009-04-01,-0.96, -1.14, -12.42, 2.65, 2.02, 9.41, repro,
2009-04-02,0.36, -1.50, -10.46, 2.59, 1.93, 8.96, repro,
2009-04-03,0.58, -0.47, -2.51, 2.65, 2.02, 9.30, repro,
2009-04-04,0.50, -0.33, -7.11, 2.59, 1.98, 9.20, repro,
2009-04-05,-0.11, 1.02, -13.38, 2.49, 1.88, 8.83, repro,
2009-04-06,-0.42, 0.83, -7.99, 2.53, 1.89, 8.81, repro,
2009-04-07,0.55, 0.33, -18.11, 2.48, 1.84, 8.55, repro,
2009-04-08,1.35, -0.25, -4.26, 2.54, 1.91, 8.84, repro,
2009-04-09,0.58, -1.30, -11.00, 2.54, 2.00, 9.05, repro,
2009-04-10,-0.04, 0.68, -12.46, 2.50, 1.92, 8.90, repro,
2009-04-11,-0.84, -0.64, -3.81, 2.50, 1.91, 8.80, repro,
2009-04-12,0.22, -0.59, -7.98, 2.49, 1.86, 8.63, repro,
2009-04-13,-1.58, -0.92, -4.00, 2.52, 1.89, 9.01, repro,
2009-04-14,1.27, 0.56, -10.13, 2.52, 1.91, 8.90, repro,
2009-04-15,0.62, 0.32, -9.14, 2.57, 2.04, 9.12, repro,
2009-04-16,2.19, 1.14, -6.59, 2.51, 1.91, 8.87, repro,
2009-04-17,-0.79, -1.57, -10.73, 2.56, 1.89, 8.79, repro,
2009-04-18,-1.41, -1.39, 6.86, 2.48, 1.84, 8.55, repro,
2009-04-19,-0.25, 0.16, -6.39, 2.50, 1.88, 8.77, repro,
2009-04-20,0.14, 1.86, -16.81, 2.66, 2.08, 9.49, repro,
2009-04-21,1.04, 0.75, -9.55, 2.51, 1.91, 8.85, repro,
2009-04-22,1.13, -4.25, 3.06, 2.63, 2.04, 9.36, repro,
2009-04-23,1.00, -0.11, -1.41, 2.61, 1.95, 9.18, repro,
2009-04-24,0.62, 1.04, -11.31, 2.57, 1.91, 9.02, repro,
2009-04-25,2.64, 1.13, -12.75, 2.50, 1.87, 8.77, repro,
2009-04-26,0.10, 0.91, -16.98, 2.58, 1.92, 8.98, repro,
2009-04-27,-0.33, -0.49, -6.73, 2.52, 1.89, 8.80, repro,
2009-04-28,0.14, -2.12, -0.22, 2.55, 1.94, 8.94, repro,
2009-04-29,-0.37, -0.95, -1.42, 2.71, 2.08, 9.69, repro,
2009-04-30,-0.71, 1.82, -15.93, 2.58, 1.97, 9.08, repro,
2009-05-01,0.91, 1.42, -12.78, 2.51, 1.82, 8.63, repro,
2009-05-02,-0.43, -0.31, -3.45, 2.53, 1.88, 8.78, repro,
2009-05-03,-0.27, -0.95, 5.97, 2.50, 1.83, 8.60, repro,
2009-05-04,2.31, -0.60, -1.14, 2.54, 1.88, 8.87, repro,
2009-05-05,-0.64, -1.53, -0.37, 2.54, 1.87, 8.72, repro,
2009-05-06,0.19, 0.11, -10.22, 2.59, 1.93, 9.01, repro,
2009-05-07,-0.63, -0.36, -1.70, 2.51, 1.86, 8.67, repro,
2009-05-08,-0.04, 0.12, -5.51, 2.47, 1.87, 8.72, repro,
2009-05-09,1.49, -0.53, -10.12, 2.47, 1.81, 8.38, repro,
2009-05-10,-0.64, -0.70, -6.28, 2.49, 1.84, 8.44, repro,
2009-05-11,-0.47, -0.51, -6.25, 2.48, 1.82, 8.38, repro,
2009-05-12,0.33, 0.73, -6.80, 2.58, 1.85, 8.67, repro,
2009-05-13,0.37, 0.94, -7.37, 2.52, 1.84, 8.65, repro,
2009-05-14,0.90, -0.55, -6.43, 2.57, 1.86, 8.70, repro,
2009-05-15,1.22, -0.50, -3.89, 2.47, 1.82, 8.39, repro,
2009-05-16,1.02, -0.24, -0.09, 2.51, 1.83, 8.45, repro,
2009-05-17,0.45, 0.39, -11.07, 2.49, 1.82, 8.48, repro,
2009-05-18,0.83, 0.13, -8.28, 2.50, 1.83, 8.58, repro,
2009-05-19,2.42, 0.99, -9.42, 2.56, 1.82, 8.79, repro,
2009-05-20,0.09, -1.63, -4.78, 2.52, 1.83, 8.55, repro,
2009-05-21,1.89, -0.01, -8.65, 2.54, 1.84, 8.75, repro,
2009-05-22,3.23, 1.54, -19.54, 2.53, 1.84, 8.62, repro,
2009-05-23,1.39, -0.60, -17.11, 2.51, 1.83, 8.59, repro,
2009-05-24,1.52, -0.69, -8.58, 2.52, 1.83, 8.76, repro,
2009-05-25,0.72, -0.52, -7.49, 2.53, 1.83, 8.71, repro,
2009-05-26,1.02, -0.22, -3.46, 2.51, 1.84, 8.57, repro,
2009-05-27,1.26, 0.72, -8.88, 2.53, 1.85, 8.62, repro,
2009-05-28,2.38, -0.46, -4.44, 2.51, 1.84, 8.60, repro,
2009-05-29,0.32, -0.44, -7.90, 2.49, 1.84, 8.54, repro,
2009-05-30,-1.44, -0.87, -6.60, 2.50, 1.87, 8.72, repro,
2009-05-31,2.15, 1.31, -10.72, 2.52, 1.87, 8.71, repro,
2009-06-01,0.96, 2.84, -18.92, 2.53, 1.89, 8.73, repro,
2009-06-02,1.88, 0.21, -13.83, 2.51, 1.86, 8.49, repro,
2009-06-03,1.66, 0.02, -20.25, 2.48, 1.84, 8.54, repro,
2009-06-04,1.46, -1.97, -7.01, 2.53, 1.85, 8.70, repro,
2009-06-05,1.43, -1.15, -7.40, 2.52, 1.85, 8.71, repro,
2009-06-06,1.00, -1.42, -3.55, 2.55, 1.89, 8.72, repro,
2009-06-07,1.39, -0.39, -10.15, 2.57, 1.90, 8.79, repro,
2009-06-08,1.16, -1.13, -0.90, 2.49, 1.85, 8.51, repro,
2009-06-09,-1.48, -0.94, -5.98, 2.48, 1.84, 8.56, repro,
2009-06-10,2.28, -0.19, -16.42, 2.56, 1.88, 8.89, repro,
2009-06-11,-0.74, -2.01, 1.49, 2.56, 1.90, 8.99, repro,
2009-06-12,-0.58, 0.33, -5.58, 2.61, 1.93, 9.08, repro,
2009-06-13,1.14, -1.59, -6.72, 2.52, 1.87, 8.54, repro,
2009-06-14,1.20, -0.44, -9.09, 2.60, 1.93, 9.07, repro,
2009-06-15,0.54, -1.15, -9.14, 2.48, 1.87, 8.67, repro,
2009-06-16,1.05, -1.83, -6.20, 2.55, 1.91, 9.01, repro,
2009-06-17,0.07, -2.14, -4.38, 2.67, 1.98, 9.36, repro,
2009-06-18,1.29, -0.24, 1.15, 2.64, 1.96, 9.09, repro,
2009-06-19,0.49, -1.95, 3.56, 2.59, 1.94, 9.11, repro,
2009-06-20,1.20, -3.01, 8.37, 2.56, 1.96, 9.06, repro,
2009-06-21,1.26, -3.95, 0.04, 2.58, 1.94, 9.16, repro,
2009-06-22,-0.42, -3.29, 0.31, 2.55, 1.91, 9.04, repro,
2009-06-23,1.17, -1.65, -8.25, 2.53, 1.87, 8.77, repro,
2009-06-24,1.47, -2.21, -2.93, 2.58, 1.94, 8.86, repro,
2009-06-25,1.87, -1.89, 0.99, 2.60, 1.90, 8.81, repro,
2009-06-26,-0.52, -4.01, 0.33, 2.53, 1.93, 8.81, repro,
2009-06-27,-0.21, -0.12, -3.31, 2.58, 2.01, 9.33, repro,
2009-06-28,-1.63, -4.19, 2.49, 2.58, 1.95, 8.95, repro,
2009-06-29,0.99, -1.99, -5.92, 2.67, 2.01, 9.08, repro,
2009-06-30,1.10, -3.16, -1.95, 2.71, 1.99, 9.07, repro,
2009-07-01,0.01, -2.88, -0.63, 2.52, 1.89, 8.53, repro,
2009-07-02,0.24, -2.81, -3.29, 2.68, 1.95, 9.15, repro,
2009-07-03,-0.83, -2.94, 4.21, 2.49, 1.88, 8.62, repro,
2009-07-04,0.79, -2.14, -2.28, 2.65, 1.92, 9.09, repro,
2009-07-05,0.74, -1.46, -5.83, 2.55, 1.87, 8.63, repro,
2009-07-06,2.21, -1.67, -0.76, 2.52, 1.85, 8.55, repro,
2009-07-07,-1.51, -2.73, 4.06, 2.55, 1.88, 8.74, repro,
2009-07-08,-0.03, -1.46, 5.55, 2.53, 1.90, 8.84, repro,
2009-07-09,0.47, -1.35, -0.90, 2.53, 1.86, 8.79, repro,
2009-07-10,0.45, -1.46, 3.11, 2.55, 1.87, 8.74, repro,
2009-07-11,-0.78, -2.90, 1.83, 2.56, 1.89, 8.79, repro,
2009-07-12,-0.09, -2.36, 1.07, 2.51, 1.85, 8.57, repro,
2009-07-13,-2.64, -2.70, 9.57, 2.67, 1.97, 9.17, repro,
2009-07-14,1.33, -1.33, -0.96, 2.48, 1.87, 8.64, repro,
2009-07-15,1.37, -1.17, 4.66, 2.47, 1.83, 8.58, repro,
2009-07-16,-1.31, -1.21, 0.43, 2.50, 1.85, 8.65, repro,
2009-07-17,-1.69, -3.87, 11.30, 2.50, 1.87, 8.61, repro,
2009-07-18,-1.70, -1.73, 2.70, 2.62, 1.94, 8.89, repro,
2009-07-19,0.49, -3.14, 1.83, 2.49, 1.89, 8.67, repro,
2009-07-20,0.15, -2.61, 6.74, 2.51, 1.88, 8.73, repro,
2009-07-21,0.12, -1.79, 4.56, 2.49, 1.86, 8.67, repro,
2009-07-22,-2.39, -3.17, 13.91, 2.51, 1.91, 8.74, repro,
2009-07-23,-0.57, -2.49, 7.97, 2.54, 1.94, 8.83, repro,
2009-07-24,-1.77, -2.95, 2.68, 2.69, 2.03, 9.36, repro,
2009-07-25,-0.96, -3.16, 15.46, 2.54, 1.88, 8.88, repro,
2009-07-26,0.62, -2.23, 8.86, 2.59, 1.91, 9.01, repro,
2009-07-27,-1.54, -2.97, -1.21, 2.45, 1.86, 8.51, repro,
2009-07-28,-1.54, -4.61, 18.98, 2.64, 2.02, 9.15, repro,
2009-07-29,-2.36, -4.90, 12.13, 2.51, 1.92, 8.79, repro,
2009-07-30,0.60, -2.52, 3.20, 2.55, 1.89, 8.84, repro,
2009-07-31,-1.44, -2.99, -2.36, 2.50, 1.89, 8.83, repro,
2009-08-01,1.05, -1.46, 7.29, 2.48, 1.91, 8.82, repro,
2009-08-02,-0.92, -2.25, 3.52, 2.66, 2.01, 9.23, repro,
2009-08-03,-1.54, -2.44, -1.09, 2.52, 1.93, 8.79, repro,
2009-08-04,-2.90, -1.74, 10.20, 2.55, 1.94, 9.08, repro,
2009-08-05,-1.70, -2.19, 0.17, 2.60, 1.91, 9.12, repro,
2009-08-06,-0.27, -3.17, 2.58, 2.50, 1.87, 8.76, repro,
2009-08-07,-0.38, -2.84, 5.34, 2.58, 1.92, 8.90, repro,
2009-08-08,-2.07, -1.67, -0.73, 2.57, 1.93, 9.07, repro,
2009-08-09,-0.92, -2.80, 3.57, 2.55, 1.94, 8.81, repro,
2009-08-10,-0.14, -2.89, 2.03, 2.61, 1.96, 9.04, repro,
2009-08-11,-2.17, -2.99, 5.66, 2.67, 2.03, 9.35, repro,
2009-08-12,-1.94, -2.75, 12.35, 2.52, 1.91, 8.86, repro,
2009-08-13,-0.91, -3.14, 0.44, 2.48, 1.88, 8.56, repro,
2009-08-14,-0.80, -3.43, 2.77, 2.60, 1.95, 9.02, repro,
2009-08-15,-2.00, -3.05, 7.56, 2.54, 1.90, 8.83, repro,
2009-08-16,0.02, -3.81, 4.80, 2.66, 1.98, 9.12, repro,
2009-08-17,0.27, -1.40, 4.01, 2.53, 1.89, 8.91, repro,
2009-08-18,-1.44, -0.70, 12.03, 2.58, 1.87, 8.86, repro,
2009-08-19,1.73, -1.67, 2.21, 2.52, 1.88, 8.61, repro,
2009-08-20,-1.71, -3.63, 1.68, 2.60, 1.93, 8.91, repro,
2009-08-21,2.60, -1.51, 2.31, 2.65, 1.99, 9.28, repro,
2009-08-22,-0.45, -3.15, 0.20, 2.61, 1.95, 8.96, repro,
2009-08-23,-2.42, -1.95, 2.30, 2.64, 1.98, 9.28, repro,
2009-08-24,-2.83, -3.44, 17.63, 2.69, 1.95, 9.20, repro,
2009-08-25,-0.98, -2.18, 12.02, 2.70, 2.02, 9.34, repro,
2009-08-26,0.38, -2.09, 0.95, 2.69, 2.03, 9.28, repro,
2009-08-27,1.90, -2.22, 4.86, 2.59, 1.95, 8.84, repro,
2009-08-28,-2.09, -1.42, 8.84, 2.51, 1.94, 8.89, repro,
2009-08-29,-0.20, -1.51, 3.73, 2.62, 1.96, 9.18, repro,
2009-08-30,-0.51, -2.49, 5.12, 2.59, 1.92, 8.93, repro,
2009-08-31,-0.52, -2.93, 4.17, 2.64, 1.98, 8.99, repro,
2009-09-01,-1.52, -1.13, 9.49, 2.62, 1.98, 9.21, repro,
2009-09-02,-1.23, -1.35, 10.10, 2.54, 1.93, 8.74, repro,
2009-09-03,-2.04, -3.13, 13.45, 2.64, 1.96, 9.17, repro,
2009-09-04,-0.05, -3.35, 11.19, 2.62, 1.96, 9.12, repro,
2009-09-05,2.31, -2.51, 4.62, 2.53, 1.93, 8.72, repro,
2009-09-06,-1.89, -4.21, 14.25, 2.60, 1.95, 8.88, repro,
2009-09-07,-1.16, -0.98, 10.41, 2.56, 1.90, 8.75, repro,
2009-09-08,-0.28, -1.25, 10.91, 2.46, 1.81, 8.43, repro,
2009-09-09,-4.90, -2.04, 11.43, 2.58, 1.92, 8.75, repro,
2009-09-10,-1.58, -3.34, 2.30, 2.54, 1.89, 8.64, repro,
2009-09-11,-0.06, -1.80, -0.99, 2.59, 1.91, 8.90, repro,
2009-09-12,-1.24, -2.74, 11.09, 2.47, 1.87, 8.48, repro,
2009-09-13,-1.64, -1.19, 13.63, 2.53, 1.89, 8.66, repro,
2009-09-14,-0.30, -2.81, 18.79, 2.47, 1.84, 8.57, repro,
2009-09-15,-0.61, -2.09, 12.19, 2.51, 1.96, 8.76, repro,
2009-09-16,-1.14, -1.01, 3.35, 2.51, 1.92, 8.77, repro,
2009-09-17,-1.17, -1.16, 1.57, 2.51, 1.86, 8.68, repro,
2009-09-18,-1.04, 0.34, 3.37, 2.57, 2.03, 9.28, repro,
2009-09-19,-1.51, -1.83, 8.48, 2.52, 1.89, 8.81, repro,
2009-09-20,0.95, -0.91, -0.06, 2.48, 1.87, 8.62, repro,
2009-09-21,-1.30, -2.06, 5.09, 2.46, 1.87, 8.64, repro,
2009-09-22,-0.58, -2.91, -1.59, 2.50, 1.87, 8.73, repro,
2009-09-23,-0.15, -0.75, 4.53, 2.52, 1.95, 8.79, repro,
2009-09-24,-0.66, -3.38, 15.12, 2.49, 1.88, 8.61, repro,
2009-09-25,-1.29, -1.54, 9.70, 2.50, 1.89, 8.76, repro,
2009-09-26,-0.39, -5.17, 13.33, 2.51, 1.91, 8.89, repro,
2009-09-27,0.50, -2.14, 6.63, 2.47, 1.86, 8.67, repro,
2009-09-28,-0.89, -0.97, 2.91, 2.65, 1.96, 9.22, repro,
2009-09-29,-2.79, -1.25, 3.11, 2.69, 2.07, 9.45, repro,
2009-09-30,-1.35, -1.61, 14.77, 2.49, 1.87, 8.61, repro,
2009-10-01,1.24, -0.21, 5.75, 2.53, 1.92, 8.92, repro,
2009-10-02,0.27, -1.78, -3.63, 2.48, 1.87, 8.74, repro,
2009-10-03,1.77, -1.25, -5.17, 2.51, 1.92, 8.99, repro,
2009-10-04,0.54, -0.26, 1.78, 2.52, 1.91, 8.95, repro,
2009-10-05,-0.00, -1.27, 1.67, 2.46, 1.86, 8.61, repro,
2009-10-06,1.01, -1.46, 3.63, 2.48, 1.90, 8.74, repro,
2009-10-07,2.45, -2.08, 12.05, 2.57, 1.89, 8.82, repro,
2009-10-08,1.67, -1.42, 7.74, 2.63, 2.00, 9.06, repro,
2009-10-09,0.78, -0.09, -0.23, 2.49, 1.85, 8.59, repro,
2009-10-10,0.14, 0.42, -5.11, 2.49, 1.84, 8.58, repro,
2009-10-11,-0.27, -0.86, 9.92, 2.48, 1.89, 8.67, repro,
2009-10-12,0.75, -1.21, 13.09, 2.49, 1.84, 8.54, repro,
2009-10-13,0.49, -1.47, 14.20, 2.49, 1.89, 8.69, repro,
2009-10-14,0.46, -1.40, -0.66, 2.46, 1.88, 8.65, repro,
2009-10-15,1.36, 0.08, 7.82, 2.52, 1.93, 8.94, repro,
2009-10-16,-0.20, 1.79, 1.16, 2.56, 2.06, 9.24, repro,
2009-10-17,2.00, -0.91, 2.41, 2.55, 2.00, 9.00, repro,
2009-10-18,1.37, -0.03, 2.50, 2.51, 2.01, 8.93, repro,
2009-10-19,2.21, -0.40, -0.63, 2.61, 2.03, 9.04, repro,
2009-10-20,0.31, -0.61, 2.84, 2.50, 2.00, 8.87, repro,
2009-10-21,0.01, -2.17, 11.87, 2.54, 1.95, 8.96, repro,
2009-10-22,-0.33, -1.70, 9.48, 2.58, 2.01, 9.13, repro,
2009-10-23,1.67, -0.62, -4.35, 2.52, 2.03, 9.14, repro,
2009-10-24,1.78, -0.45, 7.42, 2.57, 2.01, 9.15, repro,
2009-10-25,0.12, 0.92, 5.85, 2.62, 1.99, 9.08, repro,
2009-10-26,2.14, 1.26, 3.30, 2.58, 2.08, 9.24, repro,
2009-10-27,-3.30, 1.91, 3.88, 2.56, 1.93, 8.92, repro,
2009-10-28,2.04, 0.98, 1.63, 2.50, 1.91, 8.75, repro,
2009-10-29,1.28, 0.30, -4.20, 2.59, 1.96, 9.14, repro,
2009-10-30,0.09, 0.52, 5.83, 2.55, 1.98, 8.99, repro,
2009-10-31,-0.87, -3.49, 13.15, 2.60, 2.03, 9.23, repro,
2009-11-01,0.73, 0.21, -2.77, 2.53, 1.96, 8.90, repro,
2009-11-02,-0.77, -1.82, 12.62, 2.59, 1.94, 8.93, repro,
2009-11-03,2.69, 0.52, -4.24, 2.50, 1.93, 8.79, repro,
2009-11-04,3.12, -0.03, 6.13, 2.49, 1.90, 8.71, repro,
2009-11-05,-1.11, -1.35, 3.82, 2.50, 1.99, 8.94, repro,
2009-11-06,-0.57, -2.90, 11.55, 2.52, 1.98, 9.00, repro,
2009-11-07,3.99, -0.50, 11.29, 2.56, 1.99, 9.05, repro,
2009-11-08,1.04, -0.36, 6.93, 2.52, 1.99, 8.93, repro,
2009-11-09,3.08, -0.13, 6.64, 2.50, 1.96, 8.85, repro,
2009-11-10,0.46, 0.79, 3.03, 2.49, 1.95, 8.73, repro,
2009-11-11,1.29, 0.23, -0.64, 2.48, 1.92, 8.73, repro,
2009-11-12,0.23, -1.05, 10.66, 2.58, 2.01, 9.22, repro,
2009-11-13,0.83, -1.04, 6.87, 2.57, 2.02, 9.20, repro,
2009-11-14,2.99, 0.82, 7.06, 2.49, 1.92, 8.88, repro,
2009-11-15,1.14, 1.13, 3.13, 2.70, 2.14, 9.61, repro,
2009-11-16,1.56, -0.93, 7.78, 2.53, 1.99, 8.98, repro,
2009-11-17,1.66, 0.62, -3.13, 2.61, 1.96, 9.05, repro,
2009-11-18,-1.29, -0.03, 4.41, 2.62, 2.03, 9.39, repro,
2009-11-19,1.42, 1.45, 2.53, 2.49, 1.93, 8.93, repro,
2009-11-20,0.11, -0.77, 4.98, 2.50, 1.98, 9.06, repro,
2009-11-21,1.04, 0.83, 8.55, 2.54, 1.90, 8.72, repro,
2009-11-22,1.23, 0.45, -0.88, 2.54, 1.95, 8.75, repro,
2009-11-23,1.23, 0.73, -3.45, 2.63, 1.97, 8.95, repro,
2009-11-24,0.36, -1.17, -2.62, 2.55, 1.88, 8.72, repro,
2009-11-25,0.95, 1.99, -8.93, 2.53, 1.98, 9.15, repro,
2009-11-26,1.95, -1.20, -2.05, 2.49, 1.94, 8.90, repro,
2009-11-27,0.84, 0.63, -5.91, 2.49, 1.96, 8.89, repro,